CAPE
2123 1861 1256 1356 799 580 610 596 526 600 549 366 328 823 728 869 777 397 803 707 727 517
1787 2040 1659 1490 841 727 602 604 670 715 411 326 490 505 192 599 674 926 829 749 718 83
1978 2075 1725 1612 1230 1069 1099 1137 1011 887 438 373 337 211 97 603 1009 962 828 594 454 119
2147 1854 1686 1444 1570 1254 1171 1217 1108 1156 1075 936 826 477 285 827 1093 1285 713 519 295 100
2290 2033 1791 1606 1582 1583 1554 1527 1293 1121 1230 927 1159 1130 1129 895 1434 1282 558 106 103 36
2336 2168 1956 1755 1358 1689 1703 1683 1508 1021 744 820 887 951 781 809 1194 866 707 72 22 17
2445 2238 2036 1788 1539 1610 1790 1731 1635 1085 804 726 849 765 721 872 793 800 668 31 12 11
2125 1999 1771 1717 1711 1593 1560 1614 1609 834 832 813 459 738 756 970 625 559 130 4 1 14
2238 1872 1880 2040 1632 1671 1524 1516 956 661 441 350 856 622 490 726 412 181 0 0 0 0
2356 2288 2031 1261 1586 1553 1408 961 781 600 262 239 394 373 357 608 382 116 1 0 0 0
2126 1895 1925 1354 1396 1468 1087 689 636 504 243 351 407 145 88 368 93 3 0 0 0 0
2340 2214 1868 1548 1554 1175 688 710 642 484 301 195 116 0 0 0 0 0 0 0 0 0
2295 2079 1998 1658 1322 822 819 980 559 488 332 208 8 0 0 0 0 0 0 0 0 0
2379 2109 1889 1428 1209 1114 1194 1129 895 442 342 417 121 0 0 0 0 0 0 0 0 0
CIN
-42 -42 -64 -39 -101 -122 -109 -83 -81 -73 -72 -93 -78 -44 -45 -46 -51 -78 -60 -65 -72 -69
-86 -40 -44 -43 -117 -132 -146 -139 -78 -73 -111 -118 -74 -78 -134 -68 -66 -44 -57 -74 -70 -186
-93 -51 -47 -41 -83 -119 -79 -54 -55 -76 -149 -136 -121 -141 -189 -84 -41 -40 -63 -88 -78 -133
-98 -83 -76 -74 -57 -91 -80 -48 -46 -42 -55 -61 -67 -111 -147 -51 -23 -17 -72 -94 -110 -137
-95 -78 -82 -93 -76 -66 -57 -40 -43 -37 -28 -43 -27 -30 -26 -30 -12 -21 -72 -154 -151 -224
-91 -97 -84 -96 -124 -61 -44 -34 -38 -39 -55 -41 -42 -37 -37 -35 -22 -41 -55 -204 -287 -367
-82 -94 -78 -81 -106 -85 -57 -39 -37 -61 -64 -58 -42 -50 -43 -32 -49 -43 -61 -212 -338 -436
-110 -92 -98 -74 -89 -90 -76 -58 -49 -100 -61 -44 -62 -47 -42 -34 -58 -54 -155 -244 -87 -463
-118 -127 -84 -85 -130 -83 -70 -55 -94 -89 -74 -58 -44 -26 -21 -55 -76 -107 -80 0 0 0
-124 -101 -95 -174 -108 -80 -61 -95 -70 -71 -77 -62 -63 -43 -30 -44 -71 -132 -66 0 0 0
-155 -155 -106 -120 -103 -76 -75 -88 -76 -63 -65 -51 -56 -114 -169 -78 -133 -188 0 0 0 0
-180 -125 -115 -96 -100 -94 -111 -64 -60 -75 -79 -95 -117 0 0 -36 0 0 0 0 0 0
-185 -168 -107 -104 -99 -97 -66 -45 -67 -58 -101 -147 -228 0 0 0 0 0 0 0 0 0
-140 -147 -122 -120 -90 -61 -29 -27 -36 -81 -104 -85 -177 0 0 0 0 0 0 0 0 0
Wind_Speed
8 5 5 6 4 5 5 5 6 6 5 6 6 5 5 3 4 4 5 6 3 1
10 7 7 7 7 6 6 5 6 7 8 7 6 6 5 4 5 4 4 5 3 1
10 7 7 5 7 8 7 7 6 6 7 6 6 6 6 5 4 6 4 3 3 3
11 10 8 8 6 7 7 7 7 7 8 7 7 7 6 5 6 5 5 2 4 1
13 12 11 9 7 8 8 6 7 7 7 7 7 7 7 6 5 6 6 5 5 2
14 13 13 11 9 9 8 7 7 7 8 7 8 6 6 6 6 6 6 6 6 4
16 15 13 12 10 10 8 8 8 8 7 7 8 8 7 7 6 7 5 6 6 5
15 11 10 11 11 10 9 8 9 7 7 6 6 5 8 7 7 6 6 6 6 5
11 11 9 8 11 10 8 7 6 6 8 7 5 5 9 8 7 7 6 6 4 6
12 10 9 7 8 9 8 6 7 7 7 7 8 14 17 15 6 7 6 7 6 6
10 7 7 7 8 7 6 8 7 7 7 7 6 12 13 13 7 6 6 7 7 7
11 8 7 7 7 5 4 5 6 6 9 9 7 11 10 9 7 6 7 6 6 6
10 11 8 7 7 5 4 5 5 6 10 12 11 14 14 10 5 6 6 5 6 11
9 9 9 8 5 6 6 5 5 6 6 10 10 10 14 13 5 7 7 6 5 5
Wind_Direction
180 178 187 184 176 190 191 199 192 198 191 204 201 203 221 231 236 234 252 254 249 143
189 177 186 196 187 191 196 198 207 197 201 198 195 195 209 229 233 228 209 241 264 175
184 180 184 194 195 182 192 191 188 175 188 187 200 204 207 228 233 210 221 228 249 242
186 191 189 203 202 191 189 188 184 181 188 186 186 200 202 208 225 205 203 199 157 118
183 187 197 202 195 186 183 189 183 181 183 189 188 193 199 202 204 199 190 166 139 149
185 190 195 201 200 190 182 183 177 179 190 192 192 189 203 197 193 189 193 162 154 176
185 189 193 196 195 184 180 185 177 187 190 195 195 185 190 190 188 186 191 166 157 176
184 179 171 182 184 178 183 187 183 180 187 200 210 193 189 182 184 175 179 164 165 173
174 174 177 159 169 171 180 180 184 197 189 189 177 198 202 186 174 174 171 172 146 145
171 167 161 154 155 165 172 183 191 192 188 184 177 186 197 186 179 175 178 168 165 172
158 161 151 154 157 161 175 187 192 181 183 173 179 187 198 176 167 165 168 169 174 173
150 150 160 171 162 171 194 189 185 183 186 170 174 157 200 162 164 170 182 185 191 178
153 153 165 161 171 170 170 191 174 182 176 167 173 182 194 179 159 173 180 184 186 176
164 163 163 162 166 162 171 167 168 164 168 175 181 196 191 192 172 182 174 175 179 189